owner,sensor,date,latitude,longitude,vertical_datum,sea_water_practical_salinity,qcFlag 
NERRS,ioos:station:NOAA.NERRS:marscwq:1,2015-05-05T18:45:00Z,27.8383,-97.0503,6.15,29.1,1111122 
NERRS,ioos:station:NOAA.NERRS:marscwq:1,2015-05-08T22:30:00Z,27.8383,-97.0503,6.12,28.6,1111122 
NERRS,ioos:station:NOAA.NERRS:marscwq:1,2015-05-08T23:30:00Z,27.8383,-97.0503,6.05,28.5,1111122 
NERRS,ioos:station:NOAA.NERRS:marscwq:1,2015-05-09T00:30:00Z,27.8383,-97.0503,6.02,28.4,1111122 
NERRS,ioos:station:NOAA.NERRS:marscwq:1,2015-05-09T01:30:00Z,27.8383,-97.0503,5.93,28.5,1111122 
NERRS,ioos:station:NOAA.NERRS:marscwq:1,2015-05-09T02:30:00Z,27.8383,-97.0503,5.88,28.6,1111122 
NERRS,ioos:station:NOAA.NERRS:marscwq:1,2015-05-09T03:30:00Z,27.8383,-97.0503,5.83,28.9,1111122 
NERRS,ioos:station:NOAA.NERRS:marscwq:1,2015-05-09T04:30:00Z,27.8383,-97.0503,5.84,28.7,1111122 
NERRS,ioos:station:NOAA.NERRS:marscwq:1,2015-05-09T05:30:00Z,27.8383,-97.0503,5.8,28.7,1111122 
NERRS,ioos:station:NOAA.NERRS:marscwq:1,2015-05-09T06:30:00Z,27.8383,-97.0503,5.86,28.8,1111122 
NERRS,ioos:station:NOAA.NERRS:marscwq:1,2015-05-09T07:30:00Z,27.8383,-97.0503,5.82,28.7,1111122 
NERRS,ioos:station:NOAA.NERRS:marscwq:1,2015-05-09T08:30:00Z,27.8383,-97.0503,5.9,28.5,1111122 
NERRS,ioos:station:NOAA.NERRS:marscwq:1,2015-05-09T09:30:00Z,27.8383,-97.0503,5.91,27.8,1111122 
NERRS,ioos:station:NOAA.NERRS:marscwq:1,2015-05-09T10:30:00Z,27.8383,-97.0503,6.05,28.1,1111122 
NERRS,ioos:station:NOAA.NERRS:marscwq:1,2015-05-09T11:30:00Z,27.8383,-97.0503,6.1,27.5,1111122 
NERRS,ioos:station:NOAA.NERRS:marscwq:1,2015-05-09T12:30:00Z,27.8383,-97.0503,6.13,28.1,1111122 
NERRS,ioos:station:NOAA.NERRS:marscwq:1,2015-05-09T13:30:00Z,27.8383,-97.0503,6.14,28.3,1111122 
NERRS,ioos:station:NOAA.NERRS:marscwq:1,2015-05-09T14:30:00Z,27.8383,-97.0503,6.15,28.8,1111122 
NERRS,ioos:station:NOAA.NERRS:marscwq:1,2015-05-09T15:30:00Z,27.8383,-97.0503,6.13,28.5,1111122 
NERRS,ioos:station:NOAA.NERRS:marscwq:1,2015-05-09T16:30:00Z,27.8383,-97.0503,6.14,28.5,1111122 
NERRS,ioos:station:NOAA.NERRS:marscwq:1,2015-05-09T17:30:00Z,27.8383,-97.0503,6.12,28.8,1111122 
NERRS,ioos:station:NOAA.NERRS:marscwq:1,2015-05-09T18:30:00Z,27.8383,-97.0503,6.12,28.4,1111122 
NERRS,ioos:station:NOAA.NERRS:marscwq:1,2015-05-09T19:30:00Z,27.8383,-97.0503,6.09,28.4,1111122 
NERRS,ioos:station:NOAA.NERRS:marscwq:1,2015-05-09T20:30:00Z,27.8383,-97.0503,6.06,28.3,1111122 
NERRS,ioos:station:NOAA.NERRS:marscwq:1,2015-05-09T21:30:00Z,27.8383,-97.0503,6.1,28.3,1111122 
NERRS,ioos:station:NOAA.NERRS:marscwq:1,2015-05-09T22:30:00Z,27.8383,-97.0503,6.06,28.3,1111122 
NERRS,ioos:station:NOAA.NERRS:marscwq:1,2015-05-09T23:30:00Z,27.8383,-97.0503,5.99,28.3,1111122 
NERRS,ioos:station:NOAA.NERRS:marscwq:1,2015-05-10T00:30:00Z,27.8383,-97.0503,5.99,28.3,1111122 
NERRS,ioos:station:NOAA.NERRS:marscwq:1,2015-05-10T01:30:00Z,27.8383,-97.0503,5.94,28.7,1111122 
NERRS,ioos:station:NOAA.NERRS:marscwq:1,2015-05-10T02:30:00Z,27.8383,-97.0503,5.88,28.8,1111122 
NERRS,ioos:station:NOAA.NERRS:marscwq:1,2015-05-10T03:30:00Z,27.8383,-97.0503,5.87,28.8,1111122 
NERRS,ioos:station:NOAA.NERRS:marscwq:1,2015-05-10T04:30:00Z,27.8383,-97.0503,5.81,28.5,1111122 
NERRS,ioos:station:NOAA.NERRS:marscwq:1,2015-05-10T05:30:00Z,27.8383,-97.0503,5.8,28.8,1111122 
NERRS,ioos:station:NOAA.NERRS:marscwq:1,2015-05-10T06:30:00Z,27.8383,-97.0503,5.79,28.9,1111122 
NERRS,ioos:station:NOAA.NERRS:marscwq:1,2015-05-10T07:30:00Z,27.8383,-97.0503,5.85,28.9,1111122 
NERRS,ioos:station:NOAA.NERRS:marscwq:1,2015-05-10T08:30:00Z,27.8383,-97.0503,5.82,28.9,1111122 
NERRS,ioos:station:NOAA.NERRS:marscwq:1,2015-05-10T09:30:00Z,27.8383,-97.0503,5.83,28.5,1111122 
NERRS,ioos:station:NOAA.NERRS:marscwq:1,2015-05-10T10:30:00Z,27.8383,-97.0503,5.98,28.9,1111122 
NERRS,ioos:station:NOAA.NERRS:marscwq:1,2015-05-10T11:30:00Z,27.8383,-97.0503,5.97,28.5,1111122 
NERRS,ioos:station:NOAA.NERRS:marscwq:1,2015-05-10T12:30:00Z,27.8383,-97.0503,6.07,28.9,1111122 
NERRS,ioos:station:NOAA.NERRS:marscwq:1,2015-05-10T13:30:00Z,27.8383,-97.0503,6.14,29.5,1111122 
NERRS,ioos:station:NOAA.NERRS:marscwq:1,2015-05-10T14:30:00Z,27.8383,-97.0503,6.15,29.2,1111122 
NERRS,ioos:station:NOAA.NERRS:marscwq:1,2015-05-10T15:30:00Z,27.8383,-97.0503,6.12,29.0,1111122 
NERRS,ioos:station:NOAA.NERRS:marscwq:1,2015-05-10T16:30:00Z,27.8383,-97.0503,6.16,29.0,1111122 
NERRS,ioos:station:NOAA.NERRS:marscwq:1,2015-05-10T17:30:00Z,27.8383,-97.0503,6.07,28.9,1111122 
NERRS,ioos:station:NOAA.NERRS:marscwq:1,2015-05-10T18:30:00Z,27.8383,-97.0503,6.13,29.2,1111122 
NERRS,ioos:station:NOAA.NERRS:marscwq:1,2015-05-10T19:30:00Z,27.8383,-97.0503,6.12,29.0,1111122 
NERRS,ioos:station:NOAA.NERRS:marscwq:1,2015-05-10T20:30:00Z,27.8383,-97.0503,6.08,29.0,1111122 
NERRS,ioos:station:NOAA.NERRS:marscwq:1,2015-05-10T21:30:00Z,27.8383,-97.0503,6.07,28.8,1111122 
NERRS,ioos:station:NOAA.NERRS:marscwq:1,2015-05-10T22:30:00Z,27.8383,-97.0503,6.03,29.0,1111122 
NERRS,ioos:station:NOAA.NERRS:marscwq:1,2015-05-10T23:30:00Z,27.8383,-97.0503,6.03,28.9,1111122 
NERRS,ioos:station:NOAA.NERRS:marscwq:1,2015-05-11T00:30:00Z,27.8383,-97.0503,6.08,28.9,1111122 
NERRS,ioos:station:NOAA.NERRS:marscwq:1,2015-05-11T01:30:00Z,27.8383,-97.0503,6.03,29.0,1111122 
NERRS,ioos:station:NOAA.NERRS:marscwq:1,2015-05-11T02:30:00Z,27.8383,-97.0503,6.01,29.0,1111122 
NERRS,ioos:station:NOAA.NERRS:marscwq:1,2015-05-11T03:30:00Z,27.8383,-97.0503,5.96,29.0,1111122 
NERRS,ioos:station:NOAA.NERRS:marscwq:1,2015-05-11T04:30:00Z,27.8383,-97.0503,5.91,28.8,1111122 
NERRS,ioos:station:NOAA.NERRS:marscwq:1,2015-05-11T05:30:00Z,27.8383,-97.0503,5.88,28.8,1111122 
NERRS,ioos:station:NOAA.NERRS:marscwq:1,2015-05-11T07:30:00Z,27.8383,-97.0503,5.76,29.0,1111122 
NERRS,ioos:station:NOAA.NERRS:marscwq:1,2015-05-11T08:30:00Z,27.8383,-97.0503,5.69,29.4,1111122 
NERRS,ioos:station:NOAA.NERRS:marscwq:1,2015-05-11T09:30:00Z,27.8383,-97.0503,5.84,28.6,1111122 
NERRS,ioos:station:NOAA.NERRS:marscwq:1,2015-05-11T10:30:00Z,27.8383,-97.0503,5.83,27.9,1111122 
NERRS,ioos:station:NOAA.NERRS:marscwq:1,2015-05-11T11:30:00Z,27.8383,-97.0503,5.94,28.8,1111122 
NERRS,ioos:station:NOAA.NERRS:marscwq:1,2015-05-11T12:30:00Z,27.8383,-97.0503,6.02,27.6,1111122 
NERRS,ioos:station:NOAA.NERRS:marscwq:1,2015-05-11T13:30:00Z,27.8383,-97.0503,6.12,28.5,1111122 
NERRS,ioos:station:NOAA.NERRS:marscwq:1,2015-05-11T14:30:00Z,27.8383,-97.0503,6.12,28.7,1111122 
NERRS,ioos:station:NOAA.NERRS:marscwq:1,2015-05-11T15:30:00Z,27.8383,-97.0503,6.11,28.8,1111122 
NERRS,ioos:station:NOAA.NERRS:marscwq:1,2015-05-11T16:30:00Z,27.8383,-97.0503,6.16,28.9,1111122 
NERRS,ioos:station:NOAA.NERRS:marscwq:1,2015-05-11T17:30:00Z,27.8383,-97.0503,6.16,29.0,1111122 
NERRS,ioos:station:NOAA.NERRS:marscwq:1,2015-05-11T18:30:00Z,27.8383,-97.0503,6.11,28.8,1111122 
NERRS,ioos:station:NOAA.NERRS:marscwq:1,2015-05-11T19:30:00Z,27.8383,-97.0503,6.05,28.6,1111122 
NERRS,ioos:station:NOAA.NERRS:marscwq:1,2015-05-11T20:30:00Z,27.8383,-97.0503,6.05,28.8,1111122 
NERRS,ioos:station:NOAA.NERRS:marscwq:1,2015-05-11T21:30:00Z,27.8383,-97.0503,6.07,28.7,1111122 
NERRS,ioos:station:NOAA.NERRS:marscwq:1,2015-05-11T22:30:00Z,27.8383,-97.0503,6.08,28.7,1111122 
NERRS,ioos:station:NOAA.NERRS:marscwq:1,2015-05-11T23:30:00Z,27.8383,-97.0503,6.07,28.5,1111122 
NERRS,ioos:station:NOAA.NERRS:marscwq:1,2015-05-12T00:30:00Z,27.8383,-97.0503,6.11,29.0,1111122 
NERRS,ioos:station:NOAA.NERRS:marscwq:1,2015-05-12T01:30:00Z,27.8383,-97.0503,6.09,28.7,1111122 
NERRS,ioos:station:NOAA.NERRS:marscwq:1,2015-05-12T02:30:00Z,27.8383,-97.0503,6.08,28.2,1111122 
NERRS,ioos:station:NOAA.NERRS:marscwq:1,2015-05-12T03:30:00Z,27.8383,-97.0503,6.1,26.2,1111122 
NERRS,ioos:station:NOAA.NERRS:marscwq:1,2015-05-12T04:30:00Z,27.8383,-97.0503,6.1,26.8,1111122 
NERRS,ioos:station:NOAA.NERRS:marscwq:1,2015-05-12T05:30:00Z,27.8383,-97.0503,6.08,26.2,1111122 
NERRS,ioos:station:NOAA.NERRS:marscwq:1,2015-05-12T07:30:00Z,27.8383,-97.0503,6.0,26.6,1111122 
NERRS,ioos:station:NOAA.NERRS:marscwq:1,2015-05-12T08:30:00Z,27.8383,-97.0503,6.08,24.6,1111122 
NERRS,ioos:station:NOAA.NERRS:marscwq:1,2015-05-12T09:30:00Z,27.8383,-97.0503,6.04,24.1,1111122 
NERRS,ioos:station:NOAA.NERRS:marscwq:1,2015-05-12T10:30:00Z,27.8383,-97.0503,6.12,23.9,1111122 
NERRS,ioos:station:NOAA.NERRS:marscwq:1,2015-05-12T11:30:00Z,27.8383,-97.0503,6.01,24.0,1111122 
NERRS,ioos:station:NOAA.NERRS:marscwq:1,2015-05-12T12:30:00Z,27.8383,-97.0503,6.17,24.0,1111122 
NERRS,ioos:station:NOAA.NERRS:marscwq:1,2015-05-12T13:30:00Z,27.8383,-97.0503,6.12,23.4,1111122 
NERRS,ioos:station:NOAA.NERRS:marscwq:1,2015-05-12T14:30:00Z,27.8383,-97.0503,6.27,25.3,1111122 
NERRS,ioos:station:NOAA.NERRS:marscwq:1,2015-05-12T15:30:00Z,27.8383,-97.0503,6.21,24.7,1111122 
NERRS,ioos:station:NOAA.NERRS:marscwq:1,2015-05-12T16:30:00Z,27.8383,-97.0503,6.35,26.4,1111122 
NERRS,ioos:station:NOAA.NERRS:marscwq:1,2015-05-12T17:30:00Z,27.8383,-97.0503,6.26,26.1,1111122 
NERRS,ioos:station:NOAA.NERRS:marscwq:1,2015-05-12T18:30:00Z,27.8383,-97.0503,6.21,26.1,1111122 
NERRS,ioos:station:NOAA.NERRS:marscwq:1,2015-05-12T19:30:00Z,27.8383,-97.0503,6.23,26.2,1111122 
NERRS,ioos:station:NOAA.NERRS:marscwq:1,2015-05-12T20:30:00Z,27.8383,-97.0503,6.1,27.0,1111122 
NERRS,ioos:station:NOAA.NERRS:marscwq:1,2015-05-12T21:30:00Z,27.8383,-97.0503,6.09,26.2,1111122 
NERRS,ioos:station:NOAA.NERRS:marscwq:1,2015-05-12T22:30:00Z,27.8383,-97.0503,6.02,26.2,1111122 
NERRS,ioos:station:NOAA.NERRS:marscwq:1,2015-05-13T00:30:00Z,27.8383,-97.0503,5.99,25.3,1111122 
NERRS,ioos:station:NOAA.NERRS:marscwq:1,2015-05-13T01:30:00Z,27.8383,-97.0503,6.07,26.2,1111122 
NERRS,ioos:station:NOAA.NERRS:marscwq:1,2015-05-13T02:30:00Z,27.8383,-97.0503,6.05,24.4,1111122 
NERRS,ioos:station:NOAA.NERRS:marscwq:1,2015-05-13T03:30:00Z,27.8383,-97.0503,6.03,25.7,1111122 
NERRS,ioos:station:NOAA.NERRS:marscwq:1,2015-05-13T04:30:00Z,27.8383,-97.0503,6.05,24.7,1111122 
NERRS,ioos:station:NOAA.NERRS:marscwq:1,2015-05-13T05:30:00Z,27.8383,-97.0503,6.12,23.3,1111122 
NERRS,ioos:station:NOAA.NERRS:marscwq:1,2015-05-13T07:30:00Z,27.8383,-97.0503,6.06,22.9,1111122 
NERRS,ioos:station:NOAA.NERRS:marscwq:1,2015-05-13T08:30:00Z,27.8383,-97.0503,5.97,22.6,1111122 
NERRS,ioos:station:NOAA.NERRS:marscwq:1,2015-05-13T10:30:00Z,27.8383,-97.0503,5.95,25.0,1111122 
NERRS,ioos:station:NOAA.NERRS:marscwq:1,2015-05-13T11:30:00Z,27.8383,-97.0503,5.92,25.0,1111122 
NERRS,ioos:station:NOAA.NERRS:marscwq:1,2015-05-13T12:30:00Z,27.8383,-97.0503,6.06,23.0,1111122 
NERRS,ioos:station:NOAA.NERRS:marscwq:1,2015-05-13T13:30:00Z,27.8383,-97.0503,6.07,26.0,1111122 
NERRS,ioos:station:NOAA.NERRS:marscwq:1,2015-05-13T14:30:00Z,27.8383,-97.0503,6.17,25.5,1111122 
NERRS,ioos:station:NOAA.NERRS:marscwq:1,2015-05-13T15:30:00Z,27.8383,-97.0503,6.23,26.0,1111122 
NERRS,ioos:station:NOAA.NERRS:marscwq:1,2015-05-13T16:30:00Z,27.8383,-97.0503,6.14,26.5,1111122 
NERRS,ioos:station:NOAA.NERRS:marscwq:1,2015-05-13T17:30:00Z,27.8383,-97.0503,6.18,27.0,1111122 
NERRS,ioos:station:NOAA.NERRS:marscwq:1,2015-05-13T18:30:00Z,27.8383,-97.0503,6.13,26.7,1111122 
NERRS,ioos:station:NOAA.NERRS:marscwq:1,2015-05-13T19:30:00Z,27.8383,-97.0503,6.15,26.6,1111122 
NERRS,ioos:station:NOAA.NERRS:marscwq:1,2015-05-13T20:30:00Z,27.8383,-97.0503,6.07,26.3,1111122 
NERRS,ioos:station:NOAA.NERRS:marscwq:1,2015-05-13T21:30:00Z,27.8383,-97.0503,6.0,26.4,1111122 
NERRS,ioos:station:NOAA.NERRS:marscwq:1,2015-05-13T23:00:00Z,27.8383,-97.0503,5.92,24.8,1111122 
NERRS,ioos:station:NOAA.NERRS:marscwq:1,2015-05-14T00:30:00Z,27.8383,-97.0503,5.99,25.4,1111122 
NERRS,ioos:station:NOAA.NERRS:marscwq:1,2015-05-14T01:30:00Z,27.8383,-97.0503,6.02,24.4,1111122 
NERRS,ioos:station:NOAA.NERRS:marscwq:1,2015-05-14T02:30:00Z,27.8383,-97.0503,6.03,25.1,1111122 
NERRS,ioos:station:NOAA.NERRS:marscwq:1,2015-05-14T03:30:00Z,27.8383,-97.0503,6.12,25.6,1111122 
NERRS,ioos:station:NOAA.NERRS:marscwq:1,2015-05-14T04:30:00Z,27.8383,-97.0503,6.21,25.0,1111122 
NERRS,ioos:station:NOAA.NERRS:marscwq:1,2015-05-14T05:30:00Z,27.8383,-97.0503,6.15,26.1,1111122 
NERRS,ioos:station:NOAA.NERRS:marscwq:1,2015-05-14T06:30:00Z,27.8383,-97.0503,6.12,25.9,1111122 
NERRS,ioos:station:NOAA.NERRS:marscwq:1,2015-05-14T07:30:00Z,27.8383,-97.0503,6.14,26.2,1111122 
NERRS,ioos:station:NOAA.NERRS:marscwq:1,2015-05-14T08:30:00Z,27.8383,-97.0503,6.06,26.4,1111122 
NERRS,ioos:station:NOAA.NERRS:marscwq:1,2015-05-14T09:30:00Z,27.8383,-97.0503,6.04,26.0,1111122 
NERRS,ioos:station:NOAA.NERRS:marscwq:1,2015-05-14T10:30:00Z,27.8383,-97.0503,6.04,26.9,1111122 
NERRS,ioos:station:NOAA.NERRS:marscwq:1,2015-05-14T11:30:00Z,27.8383,-97.0503,5.96,26.3,1111122 
NERRS,ioos:station:NOAA.NERRS:marscwq:1,2015-05-14T12:30:00Z,27.8383,-97.0503,5.99,22.3,1111122 
NERRS,ioos:station:NOAA.NERRS:marscwq:1,2015-05-14T13:30:00Z,27.8383,-97.0503,6.07,20.7,1111122 
NERRS,ioos:station:NOAA.NERRS:marscwq:1,2015-05-14T14:30:00Z,27.8383,-97.0503,6.1,20.6,1111122 
NERRS,ioos:station:NOAA.NERRS:marscwq:1,2015-05-14T15:30:00Z,27.8383,-97.0503,6.12,23.6,1111122 
NERRS,ioos:station:NOAA.NERRS:marscwq:1,2015-05-14T16:30:00Z,27.8383,-97.0503,6.11,25.6,1111122 
NERRS,ioos:station:NOAA.NERRS:marscwq:1,2015-05-14T17:30:00Z,27.8383,-97.0503,6.09,25.8,1111122 
NERRS,ioos:station:NOAA.NERRS:marscwq:1,2015-05-14T18:30:00Z,27.8383,-97.0503,6.09,25.8,1111122 
NERRS,ioos:station:NOAA.NERRS:marscwq:1,2015-05-14T19:30:00Z,27.8383,-97.0503,6.04,26.3,1111122 
NERRS,ioos:station:NOAA.NERRS:marscwq:1,2015-05-14T20:30:00Z,27.8383,-97.0503,5.96,25.8,1111122 
NERRS,ioos:station:NOAA.NERRS:marscwq:1,2015-05-14T21:30:00Z,27.8383,-97.0503,5.95,26.6,1111122 
NERRS,ioos:station:NOAA.NERRS:marscwq:1,2015-05-14T22:30:00Z,27.8383,-97.0503,5.91,22.1,1111122 
NERRS,ioos:station:NOAA.NERRS:marscwq:1,2015-05-14T23:30:00Z,27.8383,-97.0503,5.84,22.2,1111122 
NERRS,ioos:station:NOAA.NERRS:marscwq:1,2015-05-15T00:30:00Z,27.8383,-97.0503,5.83,22.6,1111122 
NERRS,ioos:station:NOAA.NERRS:marscwq:1,2015-05-15T01:30:00Z,27.8383,-97.0503,5.82,24.2,1111122 
NERRS,ioos:station:NOAA.NERRS:marscwq:1,2015-05-15T02:30:00Z,27.8383,-97.0503,5.9,23.3,1111122 
NERRS,ioos:station:NOAA.NERRS:marscwq:1,2015-05-15T03:30:00Z,27.8383,-97.0503,5.99,23.4,1111122 
NERRS,ioos:station:NOAA.NERRS:marscwq:1,2015-05-15T04:30:00Z,27.8383,-97.0503,6.1,24.0,1111122 
NERRS,ioos:station:NOAA.NERRS:marscwq:1,2015-05-15T05:30:00Z,27.8383,-97.0503,6.15,26.4,1111122 
NERRS,ioos:station:NOAA.NERRS:marscwq:1,2015-05-15T07:30:00Z,27.8383,-97.0503,6.1,26.4,1111122 
NERRS,ioos:station:NOAA.NERRS:marscwq:1,2015-05-15T08:30:00Z,27.8383,-97.0503,6.13,26.4,1111122 
NERRS,ioos:station:NOAA.NERRS:marscwq:1,2015-05-15T09:30:00Z,27.8383,-97.0503,6.08,26.4,1111122 
NERRS,ioos:station:NOAA.NERRS:marscwq:1,2015-05-15T10:30:00Z,27.8383,-97.0503,6.04,26.3,1111122 
NERRS,ioos:station:NOAA.NERRS:marscwq:1,2015-05-15T11:30:00Z,27.8383,-97.0503,6.04,26.2,1111122 
NERRS,ioos:station:NOAA.NERRS:marscwq:1,2015-05-15T12:30:00Z,27.8383,-97.0503,5.66,26.3,1111122 
NERRS,ioos:station:NOAA.NERRS:marscwq:1,2015-05-15T14:30:00Z,27.8383,-97.0503,6.05,25.8,1111122 
NERRS,ioos:station:NOAA.NERRS:marscwq:1,2015-05-15T17:30:00Z,27.8383,-97.0503,6.12,25.5,1111122 
NERRS,ioos:station:NOAA.NERRS:marscwq:1,2015-05-15T18:30:00Z,27.8383,-97.0503,6.09,26.0,1111122 
NERRS,ioos:station:NOAA.NERRS:marscwq:1,2015-05-15T19:30:00Z,27.8383,-97.0503,6.04,25.8,1111122 
NERRS,ioos:station:NOAA.NERRS:marscwq:1,2015-05-15T20:30:00Z,27.8383,-97.0503,5.9,25.9,1111122 
NERRS,ioos:station:NOAA.NERRS:marscwq:1,2015-05-15T21:30:00Z,27.8383,-97.0503,5.85,26.0,1111122 
NERRS,ioos:station:NOAA.NERRS:marscwq:1,2015-05-15T22:30:00Z,27.8383,-97.0503,5.81,25.7,1111122 
NERRS,ioos:station:NOAA.NERRS:marscwq:1,2015-05-15T23:30:00Z,27.8383,-97.0503,5.81,25.3,1111122 
NERRS,ioos:station:NOAA.NERRS:marscwq:1,2015-05-16T00:30:00Z,27.8383,-97.0503,5.84,24.7,1111122 
NERRS,ioos:station:NOAA.NERRS:marscwq:1,2015-05-16T01:30:00Z,27.8383,-97.0503,5.78,24.4,1111122 
NERRS,ioos:station:NOAA.NERRS:marscwq:1,2015-05-16T02:30:00Z,27.8383,-97.0503,5.84,24.1,1111122 
NERRS,ioos:station:NOAA.NERRS:marscwq:1,2015-05-16T03:30:00Z,27.8383,-97.0503,5.91,26.2,1111122 
NERRS,ioos:station:NOAA.NERRS:marscwq:1,2015-05-16T04:30:00Z,27.8383,-97.0503,6.02,25.1,1111122 
NERRS,ioos:station:NOAA.NERRS:marscwq:1,2015-05-16T05:30:00Z,27.8383,-97.0503,6.08,25.4,1111122 
NERRS,ioos:station:NOAA.NERRS:marscwq:1,2015-05-16T07:30:00Z,27.8383,-97.0503,6.15,25.4,1111122 
NERRS,ioos:station:NOAA.NERRS:marscwq:1,2015-05-16T08:30:00Z,27.8383,-97.0503,6.16,26.2,1111122 
NERRS,ioos:station:NOAA.NERRS:marscwq:1,2015-05-16T09:30:00Z,27.8383,-97.0503,6.13,26.3,1111122 
NERRS,ioos:station:NOAA.NERRS:marscwq:1,2015-05-16T10:30:00Z,27.8383,-97.0503,6.08,26.2,1111122 
NERRS,ioos:station:NOAA.NERRS:marscwq:1,2015-05-16T11:30:00Z,27.8383,-97.0503,6.09,26.2,1111122 
NERRS,ioos:station:NOAA.NERRS:marscwq:1,2015-05-16T12:30:00Z,27.8383,-97.0503,6.07,26.2,1111122 
NERRS,ioos:station:NOAA.NERRS:marscwq:1,2015-05-16T13:30:00Z,27.8383,-97.0503,6.09,26.3,1111122 
NERRS,ioos:station:NOAA.NERRS:marscwq:1,2015-05-16T14:30:00Z,27.8383,-97.0503,6.06,26.3,1111122 
NERRS,ioos:station:NOAA.NERRS:marscwq:1,2015-05-16T15:30:00Z,27.8383,-97.0503,6.06,26.2,1111122 
NERRS,ioos:station:NOAA.NERRS:marscwq:1,2015-05-16T16:30:00Z,27.8383,-97.0503,6.02,26.3,1111122 
NERRS,ioos:station:NOAA.NERRS:marscwq:1,2015-05-16T17:30:00Z,27.8383,-97.0503,6.12,26.2,1111122 
NERRS,ioos:station:NOAA.NERRS:marscwq:1,2015-05-16T18:30:00Z,27.8383,-97.0503,6.08,25.5,1111122 
NERRS,ioos:station:NOAA.NERRS:marscwq:1,2015-05-16T19:30:00Z,27.8383,-97.0503,6.06,26.2,1111122 
NERRS,ioos:station:NOAA.NERRS:marscwq:1,2015-05-16T20:30:00Z,27.8383,-97.0503,5.95,26.2,1111122 
NERRS,ioos:station:NOAA.NERRS:marscwq:1,2015-05-16T21:30:00Z,27.8383,-97.0503,5.87,26.1,1111122 
NERRS,ioos:station:NOAA.NERRS:marscwq:1,2015-05-16T22:30:00Z,27.8383,-97.0503,5.79,26.0,1111122 
NERRS,ioos:station:NOAA.NERRS:marscwq:1,2015-05-16T23:30:00Z,27.8383,-97.0503,5.74,26.1,1111122 
NERRS,ioos:station:NOAA.NERRS:marscwq:1,2015-05-17T00:30:00Z,27.8383,-97.0503,5.69,25.8,1111122 
NERRS,ioos:station:NOAA.NERRS:marscwq:1,2015-05-17T01:30:00Z,27.8383,-97.0503,5.69,25.8,1111122 
NERRS,ioos:station:NOAA.NERRS:marscwq:1,2015-05-17T02:30:00Z,27.8383,-97.0503,5.77,24.6,1111122 
NERRS,ioos:station:NOAA.NERRS:marscwq:1,2015-05-17T03:30:00Z,27.8383,-97.0503,5.8,24.2,1111122 
NERRS,ioos:station:NOAA.NERRS:marscwq:1,2015-05-17T04:30:00Z,27.8383,-97.0503,5.94,24.8,1111122 
NERRS,ioos:station:NOAA.NERRS:marscwq:1,2015-05-17T05:30:00Z,27.8383,-97.0503,6.05,22.4,1111122 
NERRS,ioos:station:NOAA.NERRS:marscwq:1,2015-05-17T07:30:00Z,27.8383,-97.0503,6.1,25.8,1111122 
NERRS,ioos:station:NOAA.NERRS:marscwq:1,2015-05-17T08:30:00Z,27.8383,-97.0503,6.13,26.7,1111122 
NERRS,ioos:station:NOAA.NERRS:marscwq:1,2015-05-17T09:30:00Z,27.8383,-97.0503,6.17,27.0,1111122 
NERRS,ioos:station:NOAA.NERRS:marscwq:1,2015-05-17T10:30:00Z,27.8383,-97.0503,6.13,26.9,1111122 
NERRS,ioos:station:NOAA.NERRS:marscwq:1,2015-05-17T11:30:00Z,27.8383,-97.0503,6.15,26.9,1111122 
NERRS,ioos:station:NOAA.NERRS:marscwq:1,2015-05-17T12:30:00Z,27.8383,-97.0503,6.14,27.0,1111122 
NERRS,ioos:station:NOAA.NERRS:marscwq:1,2015-05-17T13:30:00Z,27.8383,-97.0503,6.1,27.0,1111122 
NERRS,ioos:station:NOAA.NERRS:marscwq:1,2015-05-17T14:30:00Z,27.8383,-97.0503,6.09,26.9,1111122 
NERRS,ioos:station:NOAA.NERRS:marscwq:1,2015-05-17T15:30:00Z,27.8383,-97.0503,6.06,26.8,1111122 
NERRS,ioos:station:NOAA.NERRS:marscwq:1,2015-05-17T16:30:00Z,27.8383,-97.0503,6.03,26.9,1111122 
NERRS,ioos:station:NOAA.NERRS:marscwq:1,2015-05-17T17:30:00Z,27.8383,-97.0503,6.06,26.8,1111122 
NERRS,ioos:station:NOAA.NERRS:marscwq:1,2015-05-17T18:30:00Z,27.8383,-97.0503,6.04,26.7,1111122 
NERRS,ioos:station:NOAA.NERRS:marscwq:1,2015-05-17T19:30:00Z,27.8383,-97.0503,6.01,26.1,1111122 
NERRS,ioos:station:NOAA.NERRS:marscwq:1,2015-05-17T20:30:00Z,27.8383,-97.0503,6.03,26.7,1111122 
NERRS,ioos:station:NOAA.NERRS:marscwq:1,2015-05-17T22:30:00Z,27.8383,-97.0503,5.89,25.5,1111122 
NERRS,ioos:station:NOAA.NERRS:marscwq:1,2015-05-17T23:30:00Z,27.8383,-97.0503,5.7,24.6,1111122 
NERRS,ioos:station:NOAA.NERRS:marscwq:1,2015-05-18T00:30:00Z,27.8383,-97.0503,5.72,23.6,1111122 
NERRS,ioos:station:NOAA.NERRS:marscwq:1,2015-05-18T01:30:00Z,27.8383,-97.0503,5.65,23.0,1111122 
NERRS,ioos:station:NOAA.NERRS:marscwq:1,2015-05-18T02:30:00Z,27.8383,-97.0503,5.69,23.6,1111122 
NERRS,ioos:station:NOAA.NERRS:marscwq:1,2015-05-18T03:30:00Z,27.8383,-97.0503,5.76,23.8,1111122 
NERRS,ioos:station:NOAA.NERRS:marscwq:1,2015-05-18T04:30:00Z,27.8383,-97.0503,5.84,24.2,1111122 
NERRS,ioos:station:NOAA.NERRS:marscwq:1,2015-05-18T05:30:00Z,27.8383,-97.0503,5.96,26.6,1111122 
NERRS,ioos:station:NOAA.NERRS:marscwq:1,2015-05-18T07:30:00Z,27.8383,-97.0503,6.12,25.9,1111122 
NERRS,ioos:station:NOAA.NERRS:marscwq:1,2015-05-18T08:30:00Z,27.8383,-97.0503,6.1,26.2,1111122 
NERRS,ioos:station:NOAA.NERRS:marscwq:1,2015-05-18T09:30:00Z,27.8383,-97.0503,6.17,26.6,1111122 
NERRS,ioos:station:NOAA.NERRS:marscwq:1,2015-05-18T10:30:00Z,27.8383,-97.0503,6.21,26.6,1111122 
NERRS,ioos:station:NOAA.NERRS:marscwq:1,2015-05-18T11:30:00Z,27.8383,-97.0503,6.19,26.5,1111122 
NERRS,ioos:station:NOAA.NERRS:marscwq:1,2015-05-18T12:30:00Z,27.8383,-97.0503,6.17,26.5,1111122 
NERRS,ioos:station:NOAA.NERRS:marscwq:1,2015-05-18T13:30:00Z,27.8383,-97.0503,6.18,26.5,1111122 
NERRS,ioos:station:NOAA.NERRS:marscwq:1,2015-05-18T14:30:00Z,27.8383,-97.0503,6.17,26.5,1111122 
NERRS,ioos:station:NOAA.NERRS:marscwq:1,2015-05-18T15:30:00Z,27.8383,-97.0503,6.12,26.1,1111122 
NERRS,ioos:station:NOAA.NERRS:marscwq:1,2015-05-18T16:30:00Z,27.8383,-97.0503,6.15,26.1,1111122 
NERRS,ioos:station:NOAA.NERRS:marscwq:1,2015-05-18T17:30:00Z,27.8383,-97.0503,6.16,26.1,1111122 
NERRS,ioos:station:NOAA.NERRS:marscwq:1,2015-05-18T18:30:00Z,27.8383,-97.0503,6.12,26.2,1111122 
NERRS,ioos:station:NOAA.NERRS:marscwq:1,2015-05-18T19:30:00Z,27.8383,-97.0503,6.08,26.3,1111122 
NERRS,ioos:station:NOAA.NERRS:marscwq:1,2015-05-18T20:30:00Z,27.8383,-97.0503,6.08,26.1,1111122 
NERRS,ioos:station:NOAA.NERRS:marscwq:1,2015-05-18T21:30:00Z,27.8383,-97.0503,6.05,26.2,1111122 
NERRS,ioos:station:NOAA.NERRS:marscwq:1,2015-05-18T22:30:00Z,27.8383,-97.0503,5.87,26.2,1111122 
NERRS,ioos:station:NOAA.NERRS:marscwq:1,2015-05-18T23:30:00Z,27.8383,-97.0503,5.83,25.8,1111122 
NERRS,ioos:station:NOAA.NERRS:marscwq:1,2015-05-19T00:30:00Z,27.8383,-97.0503,5.73,23.7,1111122 
NERRS,ioos:station:NOAA.NERRS:marscwq:1,2015-05-19T01:30:00Z,27.8383,-97.0503,5.67,22.9,1111122 
NERRS,ioos:station:NOAA.NERRS:marscwq:1,2015-05-19T02:30:00Z,27.8383,-97.0503,5.65,22.7,1111122 
NERRS,ioos:station:NOAA.NERRS:marscwq:1,2015-05-19T03:30:00Z,27.8383,-97.0503,5.72,23.1,1111122 
NERRS,ioos:station:NOAA.NERRS:marscwq:1,2015-05-19T04:30:00Z,27.8383,-97.0503,5.75,23.9,1111122 
NERRS,ioos:station:NOAA.NERRS:marscwq:1,2015-05-19T05:30:00Z,27.8383,-97.0503,5.84,25.1,1111122 
NERRS,ioos:station:NOAA.NERRS:marscwq:1,2015-05-19T07:30:00Z,27.8383,-97.0503,6.05,24.6,1111122 
NERRS,ioos:station:NOAA.NERRS:marscwq:1,2015-05-19T08:30:00Z,27.8383,-97.0503,6.16,26.1,1111122 
NERRS,ioos:station:NOAA.NERRS:marscwq:1,2015-05-19T09:30:00Z,27.8383,-97.0503,6.18,24.6,1111122 
NERRS,ioos:station:NOAA.NERRS:marscwq:1,2015-05-19T10:30:00Z,27.8383,-97.0503,6.16,26.9,1111122 
NERRS,ioos:station:NOAA.NERRS:marscwq:1,2015-05-19T11:30:00Z,27.8383,-97.0503,6.16,26.7,1111122 
NERRS,ioos:station:NOAA.NERRS:marscwq:1,2015-05-19T12:30:00Z,27.8383,-97.0503,6.17,27.0,1111122 
NERRS,ioos:station:NOAA.NERRS:marscwq:1,2015-05-19T13:30:00Z,27.8383,-97.0503,6.18,26.8,1111122 
NERRS,ioos:station:NOAA.NERRS:marscwq:1,2015-05-19T14:30:00Z,27.8383,-97.0503,6.19,26.8,1111122 
NERRS,ioos:station:NOAA.NERRS:marscwq:1,2015-05-19T15:30:00Z,27.8383,-97.0503,6.19,26.8,1111122 
NERRS,ioos:station:NOAA.NERRS:marscwq:1,2015-05-19T16:30:00Z,27.8383,-97.0503,6.15,26.9,1111122 
NERRS,ioos:station:NOAA.NERRS:marscwq:1,2015-05-19T17:30:00Z,27.8383,-97.0503,6.13,26.5,1111122 